Weather in Tønsberg

Norway     59°16′01″N   10°24′52″E
temp.,
°C
wind,
m/s
gust,
m/s
humid.,
%
clouds,
%
prec.,
mm/h
press.,
hPa
HPBL,
m
25 february, thu
thu2501:00+5ssw91495100 0.1 1014365
04:00+5ssw91497100 0.1 1012313
07:00+5ssw81497100 0.4 1011298
10:00+6ssw91495100 0.1 1010331
13:00+7sw9148696 0.1 1011396
16:00+7sw81376100 0.0 1011288
19:00+5wsw9167250 0.0 1011426
22:00+5sw714785 0.0 1011375
26 february, fri
fri2601:00+5sw8137924 0.0 1011249
04:00+5wsw687621 0.0 101294
07:00+4wsw677344 0.0 101491
10:00+5wsw7969100 0.0 1016136
13:00+8wnw476079 0.0 1018245
16:00+8nw46620 0.0 102091
19:00+6nw45670 0.0 102448
22:00+4ne44740 0.0 102740
27 february, sat
sat2701:00+3nnw22810 0.0 102922
04:00+2nw01840 0.0 103022
07:00+2sw11830 0.0 103122
10:00+3nw008051 0.0 103146
13:00+4sse117775 0.0 1032107
16:00+4s1280100 0.0 103023
19:00+3wsw228399 0.0 103030
22:00+2n228494 0.0 103023
28 february, sun
sun2801:00+2n348560 0.0 103298
04:00+2n34850 0.0 1031126
07:00+2n34840 0.0 1032122
10:00+3n238039 0.0 1033142
13:00+4e007854 0.0 1033101
16:00+3s338091 0.0 103191
19:00+3ssw348448 0.0 103272
22:00+2sw45870 0.0 103297
1 march, mon
mon101:00+2sw45900 0.0 103193
04:00+2ssw34930 0.0 103089
07:00+2sw33910 0.0 102975
10:00+3wnw11830 0.0 102955
13:00+4se01770 0.0 102898
16:00+4sse22740 0.0 102842
19:00+3s11800 0.0 102822
22:00+3nne11810 0.0 102922